[[{"header":{"parameterUnit":"m.s-1","parameterCategory":1,"la1":30.2991,"la2":30.254,"lo1":-89.0895,"lo2":-89.0444,"dy":0.0017,"dx":0.0017,"nx":28,"ny":28,"refTime":"2024-07-16T09:00:00:Z","depth":0,"parameterNumber":2,"parameterNumberName":"U-component_of_WINDS"},"data":[0,0,0,0,0,0,0,0,0,0,0,0,0,0,0,0,0,0,0,0,0,0,0,0,0,0,0,0,0,0,0,0,0,0,0,0,0,0,0,0,0,0,0,0,0,0,0,0,0,0,0,0,0,0,0,0,0,0,0.6729,0.6729,0,0.6756,0.6756,0.6756,0.6781,0.6781,0.6781,0.6781,0.6811,0.6811,0.6812,0,0,0,0,0,0,0,0,0,0,0,0,0,0.67,0.6701,0.6729,0.6729,0.673,0.6756,0.6756,0.6756,0.6781,0.6781,0.6781,0.6782,0.681,0.6811,0.6812,0,0,0,0,0,0,0,0,0,0,0,0,0,0.6718,0.6701,0.6729,0.6745,0.6746,0.6756,0.6756,0.6756,0.678,0.6781,0.6781,0.6782,0.681,0.6811,0.6812,0.6808,0,0,0.6814,0.6814,0,0,0,0,0,0,0,0,0.6717,0.6719,0.6742,0.6744,0.6746,0.6765,0.6757,0.6774,0.678,0.6768,0.6781,0.6782,0.6795,0.6797,0.6801,0.6809,0.681,0.6814,0.6815,0.6815,0.6815,0,0,0,0,0,0,0,0.6716,0.6718,0.674,0.6742,0.6745,0.6751,0.6754,0.676,0.6779,0.6769,0.6771,0.6773,0.6796,0.6801,0.6802,0.6811,0.6814,0.6815,0.6815,0.6816,0.6817,0.6817,0,0,0,0,0,0,0.6712,0.6717,0.6739,0.674,0.6732,0.6751,0.6755,0.6759,0.6779,0.6782,0.6773,0.6774,0.6799,0.6801,0.6803,0.68,0.6815,0.6816,0.6816,0.6817,0.6817,0.6817,0,0,0,0,0,0,0.6711,0.6714,0.6738,0.6729,0.6733,0.6751,0.6755,0.6759,0.6763,0.6782,0.6786,0.6774,0.68,0.6802,0.6806,0.6802,0.6816,0.6817,0.6818,0.6817,0.6817,0.6794,0,0,0,0,0,0,0.671,0.6713,0.6712,0.6729,0.6733,0.674,0.6755,0.6759,0.6764,0.6766,0.6784,0.6787,0.68,0.6805,0.6807,0.6803,0.6817,0.6819,0.6818,0.6817,0.6795,0.6793,0.6791,0,0,0,0,0,0.6709,0.6705,0.6712,0.6714,0.6731,0.6739,0.6742,0.6757,0.6764,0.6762,0.6774,0.6786,0.6802,0.6805,0.6808,0.6804,0.6819,0.6818,0.6817,0.6797,0.6793,0.6791,0,0,0,0,0,0,0.6687,0.6707,0.6715,0.6716,0.6726,0.6743,0.6742,0.6753,0.6761,0.6763,0.6781,0.6785,0.6787,0.6796,0.68,0.6801,0.6812,0.6811,0.6796,0.6793,0.679,0.6789,0.6818,0,0,0,0,0,0.6682,0.6686,0.6704,0.6703,0.6707,0.6724,0.6728,0.6738,0.675,0.6754,0.6766,0.6777,0.6785,0.6789,0.6797,0.6797,0.6801,0.6795,0.6793,0.6791,0.679,0.6791,0.6789,0.6813,0.6813,0.6813,0,0,0.6672,0.6684,0.6686,0.6699,0.6708,0.6712,0.6727,0.6732,0.6735,0.6755,0.676,0.6769,0.6782,0.6784,0.6786,0.6792,0.6784,0.6789,0.6788,0.6788,0.679,0.6788,0.6785,0.6813,0.6813,0.6813,0,0,0.6657,0.6665,0.6666,0.6674,0.6687,0.6698,0.6698,0.6714,0.6721,0.6726,0.674,0.6745,0.6757,0.6766,0.6772,0.676,0.6771,0.6762,0.6749,0.675,0.6748,0.6746,0.6742,0.6741,0.6761,0.6761,0.6761,0,0.6643,0.665,0.6665,0.6668,0.6673,0.6691,0.6691,0.6699,0.6714,0.6717,0.6723,0.6739,0.6749,0.6754,0.675,0.6755,0.6756,0.676,0.6747,0.6746,0.6744,0.6741,0.6739,0.676,0.676,0.676,0.676,0,0.6632,0.6637,0.6636,0.6649,0.6655,0.6656,0.6672,0.6676,0.6685,0.6696,0.67,0.6713,0.6724,0.6725,0.6735,0.6731,0.6734,0.6743,0.6755,0.674,0.6737,0.6736,0.6758,0.6758,0.6759,0.6759,0,0,0.6604,0.6625,0.6625,0.6631,0.6646,0.6651,0.6653,0.6663,0.6666,0.6676,0.6679,0.6688,0.6696,0.6703,0.6714,0.6715,0.6704,0.6724,0.6724,0.672,0.6701,0.6695,0.6693,0.6711,0.6711,0.6711,0.67,0,0.6592,0.6597,0.661,0.6612,0.6617,0.6633,0.6635,0.6645,0.6654,0.666,0.6671,0.6678,0.6688,0.6692,0.6693,0.6705,0.6701,0.6706,0.6715,0.6715,0.6712,0.6691,0.6684,0.6673,0.6699,0.6699,0.6699,0,0.6578,0.6586,0.6588,0.6603,0.6605,0.6607,0.6617,0.6622,0.6634,0.6641,0.6648,0.666,0.6664,0.6673,0.668,0.6683,0.6688,0.6694,0.6694,0.6696,0.6707,0.6693,0.667,0.6669,0.6697,0.6697,0.6697,0,0.6558,0.6569,0.6572,0.6576,0.6594,0.6595,0.6602,0.6614,0.6619,0.6628,0.6631,0.6641,0.6646,0.6653,0.6667,0.6673,0.6672,0.6683,0.6679,0.6678,0.6679,0.6678,0.6657,0.668,0.668,0.668,0.668,0,0.6543,0.6543,0.6563,0.6564,0.6566,0.6581,0.6582,0.6591,0.6601,0.6605,0.662,0.6623,0.6641,0.6647,0.6658,0.6662,0.6664,0.667,0.6673,0.6669,0.6669,0.6673,0.6675,0.668,0.668,0.668,0.668,0,0.6521,0.6534,0.6538,0.6553,0.6557,0.6558,0.6572,0.6574,0.6584,0.6589,0.6591,0.6607,0.6615,0.6629,0.6641,0.6649,0.665,0.6655,0.6646,0.6648,0.6643,0.6644,0.6624,0.6623,0.6646,0.6646,0.6646,0,0.6511,0.6511,0.6527,0.6531,0.6537,0.6543,0.6548,0.6562,0.6567,0.658,0.6581,0.659,0.6597,0.6609,0.6622,0.6631,0.6637,0.6629,0.6638,0.6634,0.6637,0.6637,0.6638,0.6627,0.6627,0.6627,0.6626,0,0.6491,0.6498,0.6504,0.6513,0.6518,0.6526,0.6534,0.6536,0.6553,0.6558,0.6565,0.6571,0.6583,0.6591,0.6602,0.661,0.6621,0.6623,0.6623,0.6619,0.6614,0.6617,0.6641,0.6624,0.6624,0.6624,0.6624,0.6625,0.6476,0.6477,0.6488,0.6495,0.6503,0.651,0.6513,0.6523,0.653,0.654,0.6548,0.6555,0.6567,0.6583,0.659,0.6596,0.6601,0.66,0.66,0.66,0.6599,0.6612,0.6598,0.6598,0.6598,0.6598,0.6598,0,0.6458,0.6466,0.6471,0.6483,0.6488,0.6497,0.6506,0.651,0.6516,0.6526,0.6533,0.6541,0.6549,0.6563,0.6572,0.6574,0.658,0.6576,0.6577,0.6579,0.6593,0.6593,0.6572,0.6572,0.6572,0.6572,0.6572,0.6572,0.6449,0.6452,0.646,0.6467,0.6475,0.6481,0.6486,0.6493,0.6501,0.651,0.6516,0.6525,0.6536,0.6546,0.6554,0.6558,0.6561,0.6556,0.6561,0.6575,0.6578,0.658,0.658,0.6556,0.6556,0.6546,0.6546,0.6546]},{"header":{"parameterUnit":"m.s-1","parameterCategory":1,"la1":30.2991,"la2":30.254,"lo1":-89.0895,"lo2":-89.0444,"dy":0.0017,"dx":0.0017,"nx":28,"ny":28,"refTime":"2024-07-16T09:00:00:Z","depth":0,"parameterNumber":3,"parameterNumberName":"V-component_of_WINDS"},"data":[0,0,0,0,0,0,0,0,0,0,0,0,0,0,0,0,0,0,0,0,0,0,0,0,0,0,0,0,0,0,0,0,0,0,0,0,0,0,0,0,0,0,0,0,0,0,0,0,0,0,0,0,0,0,0,0,0,0,2.5514,2.5514,0,2.5537,2.5537,2.5537,2.5572,2.5572,2.5573,2.5574,2.5594,2.5594,2.5594,0,0,0,0,0,0,0,0,0,0,0,0,0,2.5498,2.5498,2.5514,2.5514,2.5515,2.5537,2.5537,2.5537,2.5572,2.5572,2.5573,2.5574,2.5594,2.5594,2.5594,0,0,0,0,0,0,0,0,0,0,0,0,0,2.5511,2.5498,2.5514,2.5534,2.5537,2.5537,2.5537,2.5537,2.5572,2.5572,2.5573,2.5574,2.5594,2.5594,2.5594,2.5575,0,0,2.5594,2.5594,0,0,0,0,0,0,0,0,2.551,2.5512,2.5531,2.5533,2.5535,2.5552,2.5539,2.555,2.5571,2.5558,2.5574,2.5575,2.5579,2.5581,2.5583,2.5576,2.5577,2.5594,2.5594,2.5594,2.5594,0,0,0,0,0,0,0,2.551,2.5511,2.5523,2.5531,2.5534,2.5542,2.5545,2.5541,2.5563,2.5559,2.5562,2.5564,2.5581,2.5583,2.5583,2.5577,2.5594,2.5594,2.5594,2.5594,2.5556,2.5555,0,0,0,0,0,0,2.5506,2.551,2.5522,2.5524,2.5525,2.5541,2.5545,2.5546,2.5563,2.5567,2.5563,2.5566,2.5582,2.5583,2.5584,2.5563,2.5594,2.5594,2.5594,2.5557,2.5556,2.5555,0,0,0,0,0,0,2.5505,2.5507,2.5521,2.5518,2.552,2.5541,2.5542,2.5546,2.5548,2.5566,2.557,2.5562,2.5583,2.5584,2.5577,2.5565,2.5594,2.5594,2.5558,2.5557,2.5555,2.5521,0,0,0,0,0,0,2.5505,2.5506,2.55,2.5517,2.552,2.5514,2.5541,2.5546,2.5548,2.5551,2.5566,2.5569,2.5584,2.5577,2.5577,2.5565,2.5594,2.556,2.5558,2.5556,2.5523,2.5518,2.5514,0,0,0,0,0,2.5504,2.5488,2.5499,2.55,2.5512,2.5514,2.5515,2.5534,2.5547,2.554,2.5552,2.5569,2.5566,2.5576,2.5577,2.5564,2.556,2.5558,2.5556,2.5525,2.5519,2.5514,0,0,0,0,0,0,2.5468,2.5491,2.5503,2.5493,2.5501,2.552,2.5512,2.5527,2.5531,2.5533,2.5555,2.5558,2.5548,2.5555,2.5566,2.5547,2.5566,2.5563,2.5542,2.5537,2.5532,2.5531,2.5594,0,0,0,0,0,2.5459,2.5459,2.5479,2.5467,2.5471,2.5491,2.5492,2.5505,2.5514,2.5518,2.5529,2.5536,2.5538,2.5538,2.5539,2.5525,2.5528,2.5516,2.5512,2.5508,2.5506,2.5498,2.5493,2.5548,2.5548,2.5548,0,0,2.544,2.5452,2.5451,2.5461,2.5469,2.5467,2.5493,2.5491,2.549,2.5517,2.5511,2.552,2.553,2.5519,2.5514,2.5524,2.5491,2.5505,2.5502,2.5502,2.5496,2.549,2.5486,2.5546,2.5547,2.5547,0,0,2.5404,2.5414,2.5406,2.5414,2.5426,2.5439,2.5437,2.5454,2.5461,2.5456,2.5476,2.5475,2.5476,2.5482,2.5485,2.5453,2.5468,2.5453,2.5429,2.5422,2.5418,2.5414,2.5403,2.5398,2.5451,2.5451,2.5451,0,2.5379,2.5379,2.54,2.5396,2.54,2.5426,2.5417,2.5424,2.5435,2.5437,2.5448,2.545,2.5459,2.545,2.5442,2.5444,2.5442,2.5451,2.5417,2.5413,2.541,2.5399,2.5395,2.5449,2.5449,2.5449,2.5449,0,2.5347,2.5346,2.5338,2.535,2.5353,2.5347,2.5366,2.5366,2.538,2.5391,2.5386,2.5397,2.5401,2.54,2.5413,2.5393,2.5399,2.5413,2.5433,2.5403,2.5393,2.5389,2.5446,2.5447,2.5447,2.5448,0,0,2.5288,2.5313,2.531,2.5316,2.5331,2.5331,2.5326,2.5331,2.5331,2.5338,2.5334,2.5335,2.5349,2.5352,2.5366,2.5359,2.5333,2.5375,2.5375,2.5366,2.5312,2.5301,2.5296,2.5343,2.5343,2.5342,2.5311,0,2.5256,2.525,2.5269,2.5258,2.5258,2.5282,2.5278,2.5287,2.5298,2.5298,2.531,2.531,2.5328,2.5331,2.5325,2.5337,2.5322,2.534,2.5339,2.5339,2.5336,2.5291,2.5279,2.5249,2.5307,2.5306,2.5306,0,2.5217,2.5224,2.5213,2.523,2.5231,2.5226,2.5233,2.5234,2.5244,2.5252,2.5257,2.5273,2.5269,2.5288,2.5282,2.5293,2.5294,2.53,2.5299,2.53,2.5321,2.529,2.524,2.5236,2.53,2.5301,2.5301,0,2.5176,2.5182,2.5177,2.5181,2.52,2.5197,2.5205,2.5216,2.5218,2.5224,2.5226,2.523,2.5232,2.5235,2.5252,2.5264,2.5244,2.5264,2.525,2.525,2.5245,2.5245,2.5194,2.5245,2.5245,2.5245,2.5246,0,2.5138,2.513,2.5158,2.5155,2.5147,2.5169,2.516,2.517,2.518,2.5178,2.52,2.5197,2.522,2.522,2.5233,2.5226,2.5226,2.5233,2.5236,2.5231,2.523,2.5232,2.5234,2.5244,2.5245,2.5245,2.5245,0,2.509,2.5109,2.5105,2.5124,2.5128,2.5122,2.5138,2.5135,2.5147,2.5145,2.5146,2.5165,2.5166,2.5183,2.5188,2.5197,2.5184,2.5192,2.5181,2.5184,2.5169,2.517,2.5118,2.5112,2.5166,2.5165,2.5165,0,2.5065,2.506,2.5079,2.508,2.5087,2.5088,2.5091,2.5112,2.5114,2.5126,2.5121,2.5125,2.5128,2.5129,2.5143,2.5146,2.5154,2.5135,2.5154,2.5149,2.5154,2.5154,2.5154,2.5131,2.513,2.513,2.5129,0,2.5017,2.5027,2.5031,2.5038,2.5041,2.5048,2.5055,2.5054,2.5078,2.5079,2.5081,2.5084,2.5089,2.5092,2.5098,2.5105,2.5121,2.5123,2.512,2.5115,2.5109,2.5112,2.517,2.5124,2.5125,2.5125,2.5126,2.5126,2.498,2.4977,2.499,2.4994,2.5002,2.5009,2.5007,2.502,2.5023,2.503,2.5042,2.5042,2.5052,2.5063,2.5068,2.5068,2.5078,2.5073,2.5072,2.5071,2.5068,2.5109,2.507,2.507,2.507,2.507,2.507,0,2.4934,2.4944,2.4947,2.4958,2.4961,2.4977,2.4986,2.4987,2.4987,2.4996,2.5,2.5002,2.5005,2.502,2.5024,2.5021,2.5029,2.5022,2.5022,2.5023,2.5059,2.5062,2.5016,2.5016,2.5016,2.5016,2.5016,2.5016,2.491,2.4906,2.4917,2.4917,2.4927,2.4929,2.4933,2.4939,2.4946,2.4948,2.4951,2.4961,2.4972,2.4978,2.4981,2.4985,2.4985,2.4976,2.4982,2.5016,2.5021,2.5026,2.5028,2.4976,2.4976,2.4947,2.4947,2.4946]}]]